Weather History for Beatrice, NE

Change the Weather History Date:

Monday, February 18, 2013

  Actual Average Record
Temperature  
Mean Temperature 34 °F -  
Max Temperature 46 °F 46 °F 71 °F (2014)
Min Temperature 23 °F 21 °F -11 °F (1978)
Degree Days  
Heating Degree Days 30    
Moisture  
Dew Point 24 °F    
Average Humidity 63    
Maximum Humidity 90    
Minimum Humidity 44    
Precipitation  
Precipitation 0.00 in - - ()
Sea Level Pressure  
Sea Level Pressure 29.79 in    
Wind  
Wind Speed 14 mph (NNW)    
Max Wind Speed 31 mph    
Max Gust Speed 39 mph    
Visibility 10 miles    
Events Snow    
Averages and records for this station are not official NWS values.
T = Trace of Precipitation, MM = Missing Value Source: NWS Daily Summary

Daily Weather History Graph

Daily Weather History Graph

Search for Another Location

Airport:

Trip Planner

Search our weather history database for the weather conditions in past years. The results will help you decide how hot, cold, wet, or windy it might be!

Date:

Astronomy

Feb. 18, 2013 Rise Set
Actual Time 7:15 AM CST 6:06 PM CST
Civil Twilight 6:48 AM CST 6:34 PM CST
Nautical Twilight 6:16 AM CST 7:05 PM CST
Astronomical Twilight 5:45 AM CST 7:37 PM CST
Moon 11:52 AM CST 1:57 AM CST
Length of Visible Light 11h 45m
Length of Day
10h 50m
First Quarter, 58% of the Moon is Illuminated
Feb 18
First Quarter
Feb 25
Full
Mar 4
Last Quarter
Mar 11
New
Mar 19
First Quarter

Hourly Weather History & Observations

Time (CST) Temp. Windchill Dew Point Humidity Pressure Visibility Wind Dir Wind Speed Gust Speed Precip Events Conditions
12:15 AM 46.8 °F - 28.0 °F 48% 29.53 in 10.0 mi SSE 9.2 mph - N/A   Clear
12:55 AM 44.6 °F 40.7 °F 28.0 °F 52% 29.52 in 10.0 mi SE 6.9 mph - N/A   Clear
1:15 AM 43.7 °F 39.7 °F 27.5 °F 53% 29.52 in 10.0 mi SSE 6.9 mph - N/A   Clear
1:35 AM 44.2 °F 39.2 °F 27.9 °F 53% 29.51 in 10.0 mi SSE 9.2 mph - N/A   Clear
1:55 AM 44.2 °F 41.0 °F 27.5 °F 52% 29.51 in 10.0 mi SE 5.8 mph - N/A   Clear
2:15 AM 42.8 °F - 27.5 °F 55% 29.51 in 10.0 mi Calm Calm - N/A   Clear
2:35 AM 42.3 °F 35.5 °F 28.0 °F 57% 29.56 in 10.0 mi NW 12.7 mph 17.3 mph N/A   Clear
2:55 AM 41.2 °F 34.5 °F 27.5 °F 58% 29.55 in 10.0 mi NW 11.5 mph - N/A   Clear
3:15 AM 37.6 °F 33.1 °F 27.7 °F 67% 29.54 in 10.0 mi NE 5.8 mph - N/A   Clear
3:35 AM 39.2 °F 34.2 °F 27.9 °F 64% 29.51 in 10.0 mi East 6.9 mph - N/A   Clear
3:55 AM 38.3 °F 33.2 °F 27.7 °F 66% 29.52 in 10.0 mi North 6.9 mph 19.6 mph N/A   Clear
4:15 AM 38.5 °F 29.9 °F 28.8 °F 68% 29.53 in 10.0 mi North 15.0 mph - N/A   Clear
4:35 AM 41.4 °F 32.7 °F 28.9 °F 61% 29.54 in 10.0 mi NNE 18.4 mph 24.2 mph N/A   Clear
4:55 AM 41.0 °F 33.5 °F 29.7 °F 64% 29.56 in 10.0 mi NNE 13.8 mph 23.0 mph N/A   Clear
5:15 AM 41.2 °F 31.9 °F 30.2 °F 65% 29.56 in 10.0 mi NNE 20.7 mph 27.6 mph N/A   Clear
5:35 AM 41.4 °F 32.4 °F 29.8 °F 64% 29.56 in 10.0 mi North 19.6 mph 25.3 mph N/A   Clear
5:55 AM 40.5 °F 31.2 °F 30.0 °F 66% 29.59 in 10.0 mi NNE 19.6 mph 27.6 mph N/A   Clear
6:15 AM 40.6 °F 30.7 °F 29.8 °F 65% 29.61 in 10.0 mi NNE 23.0 mph 29.9 mph N/A   Clear
6:35 AM 40.3 °F 30.4 °F 29.3 °F 65% 29.61 in 10.0 mi North 21.9 mph 32.2 mph N/A   Clear
6:55 AM 39.4 °F 29.8 °F 29.3 °F 67% 29.62 in 10.0 mi North 19.6 mph 28.8 mph N/A   Clear
7:15 AM 39.2 °F 29.8 °F 29.1 °F 67% 29.63 in 10.0 mi North 18.4 mph 24.2 mph N/A   Clear
7:35 AM 38.3 °F 29.7 °F 29.3 °F 70% 29.64 in 10.0 mi North 15.0 mph 21.9 mph N/A   Clear
7:55 AM 38.3 °F 29.3 °F 29.3 °F 70% 29.65 in 10.0 mi North 16.1 mph - N/A   Clear
8:15 AM 39.0 °F 30.6 °F 29.8 °F 70% 29.66 in 10.0 mi North 15.0 mph 20.7 mph N/A   Scattered Clouds
8:35 AM 39.9 °F 30.5 °F 29.3 °F 66% 29.68 in 10.0 mi North 19.6 mph 25.3 mph N/A   Overcast
8:55 AM 39.4 °F 30.1 °F 29.3 °F 67% 29.70 in 10.0 mi North 18.4 mph 27.6 mph N/A   Overcast
9:15 AM 39.4 °F 30.1 °F 29.3 °F 67% 29.71 in 10.0 mi North 18.4 mph 23.0 mph N/A   Overcast
9:35 AM 39.6 °F 30.6 °F 29.1 °F 66% 29.72 in 10.0 mi North 17.3 mph 26.5 mph N/A   Overcast
9:55 AM 39.7 °F 30.0 °F 28.6 °F 64% 29.73 in 10.0 mi North 20.7 mph 24.2 mph N/A   Overcast
10:15 AM 40.1 °F 30.2 °F 27.3 °F 60% 29.75 in 10.0 mi NNW 21.9 mph 29.9 mph N/A   Overcast
10:35 AM 37.0 °F 24.9 °F 31.3 °F 80% 29.77 in 5.0 mi NNW 27.6 mph 31.1 mph N/A Snow Light Snow
10:55 AM 34.7 °F 24.0 °F 31.8 °F 89% 29.78 in 1.2 mi NNW 18.4 mph - N/A Snow Light Snow
11:15 AM 34.7 °F 24.3 °F 32.0 °F 90% 29.78 in 1.8 mi North 17.3 mph 24.2 mph N/A Snow Light Snow
11:35 AM 35.8 °F 24.2 °F 31.8 °F 86% 29.80 in 7.0 mi NNW 23.0 mph 29.9 mph N/A Snow Light Snow
11:55 AM 36.1 °F 24.2 °F 29.8 °F 78% 29.81 in 10.0 mi NNW 25.3 mph 29.9 mph N/A   Overcast
12:15 PM 34.9 °F 23.0 °F 27.9 °F 76% 29.82 in 10.0 mi NNW 23.0 mph 31.1 mph N/A   Overcast
12:35 PM 34.7 °F 22.0 °F 27.3 °F 74% 29.83 in 10.0 mi NNW 26.5 mph 32.2 mph N/A   Overcast
12:55 PM 34.9 °F 22.5 °F 27.1 °F 73% 29.84 in 10.0 mi NNW 25.3 mph 31.1 mph N/A   Overcast
1:15 PM 34.5 °F 22.8 °F 25.5 °F 70% 29.84 in 10.0 mi NNW 21.9 mph 28.8 mph N/A   Overcast
1:35 PM 34.2 °F 21.8 °F 24.6 °F 68% 29.85 in 10.0 mi NNW 24.2 mph 34.5 mph N/A   Overcast
1:55 PM 34.0 °F 21.3 °F 24.1 °F 67% 29.86 in 10.0 mi NNW 25.3 mph 33.4 mph N/A   Overcast
2:15 PM 34.7 °F 22.8 °F 22.1 °F 60% 29.87 in 10.0 mi NNW 23.0 mph 39.1 mph N/A   Overcast
2:35 PM 34.7 °F 21.8 °F 21.9 °F 60% 29.87 in 10.0 mi NNW 27.6 mph 33.4 mph N/A   Overcast
2:55 PM 34.7 °F 22.8 °F 21.2 °F 58% 29.88 in 10.0 mi NNW 23.0 mph 31.1 mph N/A   Overcast
3:15 PM 36.7 °F 24.9 °F 19.0 °F 49% 29.88 in 10.0 mi North 25.3 mph 33.4 mph N/A   Mostly Cloudy
3:35 PM 36.5 °F 25.2 °F 18.3 °F 48% 29.89 in 10.0 mi NNW 23.0 mph 33.4 mph N/A   Mostly Cloudy
3:55 PM 36.1 °F 23.5 °F 16.7 °F 45% 29.90 in 10.0 mi NNW 28.8 mph 36.8 mph N/A   Scattered Clouds
4:15 PM 36.3 °F 23.3 °F 16.3 °F 44% 29.92 in 10.0 mi NNW 31.1 mph 38.0 mph N/A   Scattered Clouds
4:35 PM 34.9 °F 21.8 °F 15.3 °F 45% 29.93 in 10.0 mi NNW 28.8 mph 35.7 mph N/A   Scattered Clouds
4:55 PM 34.3 °F 21.8 °F 14.4 °F 44% 29.93 in 10.0 mi NNW 25.3 mph 35.7 mph N/A   Clear
5:35 PM 32.5 °F 19.1 °F 14.0 °F 46% 29.95 in 10.0 mi NNW 26.5 mph 33.4 mph N/A   Clear
5:55 PM 32.0 °F 18.9 °F 14.5 °F 49% 29.96 in 10.0 mi NNW 24.2 mph 27.6 mph N/A   Clear
6:15 PM 31.6 °F 20.7 °F 14.9 °F 50% 29.98 in 10.0 mi NNW 16.1 mph - N/A   Clear
6:35 PM 30.7 °F 20.0 °F 15.4 °F 53% 29.99 in 10.0 mi NNW 15.0 mph - N/A   Clear
6:55 PM 30.4 °F 20.0 °F 14.9 °F 53% 30.00 in 10.0 mi NNW 13.8 mph - N/A   Clear
7:15 PM 29.3 °F 20.2 °F 15.4 °F 56% 30.01 in 10.0 mi NNW 10.4 mph - N/A   Clear
7:35 PM 28.2 °F 20.2 °F 15.3 °F 58% 30.01 in 10.0 mi NNW 8.1 mph - N/A   Clear
7:55 PM 26.6 °F 18.2 °F 15.6 °F 63% 30.02 in 10.0 mi NW 8.1 mph - N/A   Clear
8:15 PM 26.8 °F 18.5 °F 15.8 °F 63% 30.02 in 10.0 mi NW 8.1 mph - N/A   Clear
8:35 PM 26.6 °F 18.2 °F 15.8 °F 64% 30.03 in 10.0 mi WNW 8.1 mph - N/A   Clear
8:55 PM 26.2 °F 18.6 °F 15.8 °F 65% 30.04 in 10.0 mi WNW 6.9 mph - N/A   Clear
9:15 PM 25.7 °F 18.0 °F 15.8 °F 66% 30.04 in 10.0 mi West 6.9 mph - N/A   Clear
9:35 PM 25.0 °F 18.1 °F 15.6 °F 68% 30.05 in 10.0 mi West 5.8 mph - N/A   Clear
9:55 PM 24.4 °F 17.5 °F 15.8 °F 70% 30.05 in 10.0 mi West 5.8 mph - N/A   Clear
10:15 PM 23.9 °F 15.8 °F 15.8 °F 71% 30.06 in 10.0 mi WNW 6.9 mph - N/A   Clear
10:35 PM 23.9 °F 15.8 °F 15.6 °F 71% 30.06 in 10.0 mi WNW 6.9 mph - N/A   Scattered Clouds
10:55 PM 23.9 °F 15.8 °F 15.4 °F 70% 30.06 in 10.0 mi WNW 6.9 mph - N/A   Clear
11:15 PM 24.8 °F 16.1 °F 15.8 °F 69% 30.07 in 10.0 mi WNW 8.1 mph - N/A   Clear
11:35 PM 25.0 °F 16.3 °F 15.8 °F 68% 30.08 in 10.0 mi WNW 8.1 mph - N/A   Clear
11:55 PM 25.0 °F 16.3 °F 15.8 °F 68% 30.09 in 10.0 mi WNW 8.1 mph - N/A   Clear